Little Falls, MN

10:16 PM CDT on October 22, 2017 (GMT -0500)
Little Falls-Morrison County

Weather History for KLXL - January, 2014

Change the Weather History Date:

Monday, January 13, 2014

  Actual Average Record
Temperature  
Mean Temperature 24 °F -  
Max Temperature 30 °F 21 °F 51 °F (1987)
Min Temperature 19 °F 0 °F -29 °F (2009)
Degree Days  
Heating Degree Days 40    
Moisture  
Dew Point 17 °F    
Average Humidity 73    
Maximum Humidity 93    
Minimum Humidity 63    
Precipitation  
Precipitation 0.00 in - - ()
Sea Level Pressure  
Sea Level Pressure 29.58 in    
Wind  
Wind Speed 6 mph (WNW)    
Max Wind Speed 14 mph    
Max Gust Speed 24 mph    
Visibility 10 miles    
Events Snow    
Averages and records for this station are not official NWS values.
T = Trace of Precipitation, MM = Missing Value Source: NWS Daily Summary

Daily Weather History Graph

Daily Weather History Graph

Search for Another Location

Airport or City:

Trip Planner

Search our weather history database for the weather conditions in past years. The results will help you decide how hot, cold, wet, or windy it might be!

Date:

Astronomy

Jan. 13, 2014 Rise Set
Actual Time 7:56 AM CST 4:56 PM CST
Civil Twilight 7:22 AM CST 5:30 PM CST
Nautical Twilight 6:45 AM CST 6:07 PM CST
Astronomical Twilight 6:09 AM CST 6:43 PM CST
Moon 3:13 PM CST (1/13) 5:44 AM CST (1/13)
Length of Visible Light 10h 07m
Length of Day
9h 00m
Waxing Gibbous, 95% of the Moon is Illuminated
Jan 13
Waxing Gibbous
Jan 15
Full
Jan 23
Last Quarter
Jan 30
New
Feb 6
First Quarter

Hourly Weather History & Observations

Time (CST) Temp. Windchill Dew Point Humidity Pressure Visibility Wind Dir Wind Speed Gust Speed Precip Events Conditions
12:16 AM 24.8 °F - 23.0 °F 93% 29.49 in 10.0 mi Calm Calm - N/A   Clear
12:36 AM 23.0 °F - 21.2 °F 93% 29.49 in 10.0 mi Calm Calm - N/A   Clear
12:56 AM 26.6 °F 20.0 °F 23.0 °F 86% 29.49 in 10.0 mi WNW 5.8 mph - N/A   Clear
1:16 AM 28.4 °F 21.2 °F 24.8 °F 86% 29.49 in 10.0 mi WNW 6.9 mph - N/A   Clear
1:36 AM 28.4 °F 19.7 °F 24.8 °F 86% 29.49 in 10.0 mi WNW 9.2 mph - N/A   Clear
1:56 AM 28.4 °F 19.7 °F 24.8 °F 86% 29.50 in 10.0 mi WNW 9.2 mph - N/A   Scattered Clouds
2:16 AM 30.2 °F 21.3 °F 26.6 °F 86% 29.51 in 10.0 mi NW 10.4 mph 19.6 mph N/A   Overcast
2:36 AM 30.2 °F 19.8 °F 24.8 °F 80% 29.52 in 10.0 mi WNW 13.8 mph 18.4 mph N/A   Overcast
2:56 AM 30.2 °F 20.2 °F 24.8 °F 80% 29.53 in 10.0 mi WNW 12.7 mph 21.9 mph N/A   Overcast
3:16 AM 30.2 °F 22.6 °F 23.0 °F 75% 29.56 in 10.0 mi NW 8.1 mph 19.6 mph N/A   Overcast
3:36 AM 30.2 °F 21.3 °F 21.2 °F 69% 29.56 in 10.0 mi NW 10.4 mph 24.2 mph N/A   Overcast
3:56 AM 30.2 °F 21.3 °F 21.2 °F 69% 29.56 in 10.0 mi NW 10.4 mph 17.3 mph N/A   Mostly Cloudy
4:16 AM 30.2 °F 20.8 °F 21.2 °F 69% 29.56 in 10.0 mi WNW 11.5 mph 19.6 mph N/A   Mostly Cloudy
4:36 AM 28.4 °F 17.5 °F 19.4 °F 69% 29.57 in 10.0 mi WNW 13.8 mph 18.4 mph N/A   Scattered Clouds
4:56 AM 28.4 °F 19.7 °F 19.4 °F 69% 29.57 in 10.0 mi WNW 9.2 mph 17.3 mph N/A   Scattered Clouds
5:16 AM 26.6 °F 16.8 °F 19.4 °F 74% 29.58 in 10.0 mi WNW 10.4 mph 19.6 mph N/A   Clear
5:36 AM 26.6 °F 17.5 °F 17.6 °F 69% 29.59 in 10.0 mi WNW 9.2 mph - N/A   Scattered Clouds
5:56 AM 26.6 °F 19.1 °F 17.6 °F 69% 29.59 in 10.0 mi WNW 6.9 mph - N/A   Scattered Clouds
6:16 AM 24.8 °F 19.1 °F 17.6 °F 74% 29.59 in 10.0 mi WNW 4.6 mph - N/A   Mostly Cloudy
6:36 AM 24.8 °F 15.3 °F 17.6 °F 74% 29.59 in 10.0 mi West 9.2 mph - N/A   Overcast
6:56 AM 26.6 °F 18.2 °F 17.6 °F 69% 29.59 in 10.0 mi West 8.1 mph - N/A   Overcast
7:16 AM 26.6 °F 19.1 °F 19.4 °F 74% 29.60 in 10.0 mi West 6.9 mph - N/A   Overcast
7:37 AM 26.6 °F 19.1 °F 19.4 °F 74% 29.60 in 10.0 mi WNW 6.9 mph - N/A   Overcast
7:56 AM 26.6 °F 18.2 °F 19.4 °F 74% 29.61 in 10.0 mi West 8.1 mph - N/A   Overcast
8:16 AM 26.6 °F 19.1 °F 19.4 °F 74% 29.61 in 10.0 mi WSW 6.9 mph - N/A   Overcast
8:36 AM 26.6 °F 16.2 °F 19.4 °F 74% 29.62 in 10.0 mi West 11.5 mph - N/A   Overcast
8:56 AM 24.8 °F 15.3 °F 17.6 °F 74% 29.62 in 10.0 mi West 9.2 mph - N/A   Overcast
9:16 AM 24.8 °F 14.0 °F 17.6 °F 74% 29.62 in 10.0 mi West 11.5 mph - N/A   Overcast
9:36 AM 23.0 °F 12.4 °F 17.6 °F 80% 29.63 in 10.0 mi West 10.4 mph - N/A   Mostly Cloudy
9:56 AM 24.8 °F 16.1 °F 17.6 °F 74% 29.63 in 10.0 mi West 8.1 mph - N/A   Scattered Clouds
10:16 AM 24.8 °F 16.9 °F 17.6 °F 74% 29.63 in 10.0 mi West 6.9 mph - N/A   Mostly Cloudy
10:36 AM 23.0 °F 13.9 °F 15.8 °F 74% 29.64 in 10.0 mi West 8.1 mph - N/A   Mostly Cloudy
10:56 AM 23.0 °F 12.4 °F 15.8 °F 74% 29.63 in 10.0 mi West 10.4 mph - N/A   Scattered Clouds
11:16 AM 23.0 °F 15.8 °F 14.0 °F 68% 29.62 in 10.0 mi West 5.8 mph 9.2 mph N/A   Clear
11:36 AM 24.8 °F 14.6 °F 15.8 °F 69% 29.63 in 10.0 mi West 10.4 mph - N/A   Clear
11:56 AM 24.8 °F 15.3 °F 14.0 °F 64% 29.62 in 10.0 mi West 9.2 mph - N/A   Clear
12:16 PM 24.8 °F 16.1 °F 14.0 °F 64% 29.62 in 10.0 mi West 8.1 mph - N/A   Clear
12:36 PM 24.8 °F 16.1 °F 14.0 °F 64% 29.61 in 10.0 mi West 8.1 mph - N/A   Clear
12:56 PM 24.8 °F 15.3 °F 14.0 °F 64% 29.61 in 10.0 mi West 9.2 mph - N/A   Clear
1:16 PM 24.8 °F 16.1 °F 14.0 °F 64% 29.61 in 10.0 mi West 8.1 mph - N/A   Clear
1:36 PM 24.8 °F 15.3 °F 14.0 °F 64% 29.61 in 10.0 mi West 9.2 mph - N/A   Scattered Clouds
1:56 PM 24.8 °F 16.1 °F 14.0 °F 64% 29.61 in 10.0 mi West 8.1 mph - N/A   Scattered Clouds
2:16 PM 24.8 °F 15.3 °F 14.0 °F 64% 29.61 in 10.0 mi West 9.2 mph - N/A   Clear
2:36 PM 24.8 °F 16.1 °F 14.0 °F 64% 29.61 in 10.0 mi West 8.1 mph - N/A   Clear
2:56 PM 24.8 °F 16.9 °F 14.0 °F 64% 29.61 in 10.0 mi West 6.9 mph - N/A   Clear
3:16 PM 24.8 °F 20.5 °F 14.0 °F 64% 29.61 in 10.0 mi West 3.5 mph - N/A   Clear
3:36 PM 24.8 °F 19.1 °F 14.0 °F 64% 29.61 in 10.0 mi West 4.6 mph - N/A   Clear
3:56 PM 23.0 °F - 14.0 °F 68% 29.61 in 10.0 mi Calm Calm - N/A   Clear
4:17 PM 23.0 °F 18.4 °F 12.2 °F 63% 29.61 in 10.0 mi SW 3.5 mph - N/A   Clear
4:36 PM 23.0 °F - 12.2 °F 63% 29.61 in 10.0 mi Calm Calm - N/A   Clear
4:56 PM 21.2 °F 16.4 °F 12.2 °F 68% 29.62 in 10.0 mi SW 3.5 mph - N/A   Clear
5:16 PM 21.2 °F - 12.2 °F 68% 29.62 in 10.0 mi Calm Calm - N/A   Scattered Clouds
5:37 PM 19.4 °F - 12.2 °F 74% 29.62 in 10.0 mi Calm Calm - N/A   Mostly Cloudy
5:56 PM 19.4 °F - 12.2 °F 74% 29.60 in 10.0 mi Calm Calm - N/A   Mostly Cloudy
6:16 PM 19.4 °F - 12.2 °F 74% 29.61 in 10.0 mi Calm Calm - N/A   Overcast
6:36 PM 19.4 °F - 12.2 °F 74% 29.61 in 10.0 mi Calm Calm - N/A   Mostly Cloudy
6:56 PM 19.4 °F - 12.2 °F 74% 29.60 in 10.0 mi Calm Calm - N/A   Overcast
7:16 PM 21.2 °F - 14.0 °F 74% 29.60 in 10.0 mi Calm Calm - N/A   Overcast
7:37 PM 21.2 °F - 14.0 °F 74% 29.59 in 10.0 mi Calm Calm - N/A   Overcast
7:56 PM 21.2 °F - 14.0 °F 74% 29.59 in 10.0 mi Calm Calm - N/A   Overcast
8:16 PM 21.2 °F - 14.0 °F 74% 29.58 in 10.0 mi Calm Calm - N/A   Overcast
8:36 PM 21.2 °F - 14.0 °F 74% 29.57 in 10.0 mi Calm Calm - N/A   Overcast
8:56 PM 21.2 °F 16.4 °F 15.8 °F 80% 29.56 in 10.0 mi East 3.5 mph - N/A Snow Light Snow
9:16 PM 21.2 °F - 15.8 °F 80% 29.55 in 10.0 mi Calm Calm - N/A Snow Light Snow
9:36 PM 21.2 °F - 14.0 °F 74% 29.56 in 10.0 mi Calm Calm - N/A   Overcast
9:56 PM 21.2 °F - 15.8 °F 80% 29.55 in 10.0 mi Calm Calm - N/A   Overcast
10:16 PM 21.2 °F 14.9 °F 15.8 °F 80% 29.54 in 10.0 mi East 4.6 mph - N/A   Overcast
10:36 PM 23.0 °F 17.0 °F 17.6 °F 80% 29.53 in 10.0 mi East 4.6 mph - N/A   Overcast
10:56 PM 23.0 °F 18.4 °F 17.6 °F 80% 29.52 in 10.0 mi East 3.5 mph - N/A   Overcast
11:16 PM 23.0 °F 18.4 °F 17.6 °F 80% 29.53 in 10.0 mi East 3.5 mph - N/A   Overcast
11:36 PM 23.0 °F 15.8 °F 17.6 °F 80% 29.52 in 10.0 mi East 5.8 mph - N/A   Overcast
11:56 PM 23.0 °F 18.4 °F 17.6 °F 80% 29.52 in 4.0 mi ENE 3.5 mph - N/A Snow Light Snow